C/2019 T2 ( Lemmon )

Japanese version
Home page
Updated on November 5, 2020

---------------------------------------------------------------------

* Profile

Discovery Date October 9, 2019
Magnitude 20.6 mag
Discoverer Mt. Lemmon Survey

* Pictures

* Orbital Elements

Epoch 2021 Apr. 16.0 TT = JDT 2459320.5
T 2021 Apr. 22.27218 TT                                 Rudenko
q   2.6459951            (2000.0)            P               Q
z  +0.0005026      Peri.  239.38507     +0.33391432     -0.86094759
 +/-0.0000017      Node   155.64261     -0.13766912     +0.35821623
e   0.9986700      Incl.  111.48900     -0.93249581     -0.36117915
From 633 observations 2019 Aug. 26-2020 Oct. 17, mean residual 0".6.

* Finding Charts

* Magnitudes Graph

        m1 = 8.0 + 5 log d + 11.0 log r

---------------------------------------------------------------------

The orbital elements are published on M.P.E.C. 2020-U96.
The charts are made with StellaNavigator Ver.10 (AstroArts).
The magnitudes graphs are made with Comet for Windows.

---------------------------------------------------------------------

Copyright(C) Seiichi Yoshida (comet@aerith.net). All rights reserved.